Auburn, CA

4:11 AM PST on November 13, 2019 (GMT -0800)
Auburn Municipal

Weather History for KAUN - August, 2019

Change the Weather History Date:

Sunday, August 18, 2019

  Actual Average Record
Temperature  
Mean Temperature 72 °F -  
Max Temperature 84 °F 90 °F 105 °F (1950)
Min Temperature 60 °F 60 °F 51 °F (1976)
Cooling Degree Days 7    
Growing Degree Days 22 (Base 50)    
Moisture  
Dew Point 52 °F    
Average Humidity 48    
Maximum Humidity 72    
Minimum Humidity 30    
Precipitation  
Precipitation 0.00 in - - ()
Sea Level Pressure  
Sea Level Pressure 29.86 in    
Wind  
Wind Speed 1 mph ()    
Max Wind Speed 9 mph    
Max Gust Speed 15 mph    
Visibility 10.0 miles    
Events      
Averages and records for this station are not official NWS values.
T = Trace of Precipitation, MM = Missing Value Source: Averaged Metar Reports

Daily Weather History Graph

Daily Weather History Graph

Search for Another Location

Airport or City:

Astronomy

Aug. 18, 2019 Rise Set
Actual Time 6:20 AM PDT 7:55 PM PDT
Civil Twilight 5:52 AM PDT 8:23 PM PDT
Nautical Twilight 5:18 AM PDT 8:57 PM PDT
Astronomical Twilight 4:41 AM PDT 9:33 PM PDT
Moon 9:53 PM PDT (8/18) 9:09 AM PDT (8/18)
Length of Visible Light 14h 31m
Length of Day
13h 34m
Waning Gibbous, 91% of the Moon is Illuminated
Aug 18
Waning Gibbous
Aug 23
Last Quarter
Aug 30
New
Sep 5
First Quarter
Sep 13
Full

Hourly Weather History & Observations

Time (PDT) Temp. Heat Index Dew Point Humidity Pressure Visibility Wind Dir Wind Speed Gust Speed Precip Events Conditions
12:15 AM 68.0 °F - 46.4 °F 46% 29.81 in 10.0 mi Calm Calm - N/A   Clear
12:35 AM 64.4 °F - 46.4 °F 52% 29.81 in 10.0 mi Calm Calm - N/A   Clear
12:55 AM 62.6 °F - 46.4 °F 55% 29.81 in 10.0 mi Calm Calm - N/A   Clear
1:15 AM 62.6 °F - 48.2 °F 59% 29.81 in 10.0 mi Calm Calm - N/A   Clear
1:35 AM 64.4 °F - 46.4 °F 52% 29.81 in 10.0 mi Calm Calm - N/A   Clear
1:55 AM 64.4 °F - 48.2 °F 56% 29.81 in 10.0 mi Calm Calm - N/A   Clear
2:15 AM 64.4 °F - 51.8 °F 64% 29.81 in 10.0 mi Calm Calm - N/A   Clear
2:35 AM 64.4 °F - 53.6 °F 68% 29.81 in 10.0 mi Calm Calm - N/A   Clear
2:55 AM 66.2 °F - 53.6 °F 64% 29.81 in 10.0 mi Calm Calm - N/A   Clear
3:15 AM 64.4 °F - 53.6 °F 68% 29.82 in 10.0 mi Calm Calm - N/A   Clear
3:35 AM 60.8 °F - 51.8 °F 72% 29.81 in 10.0 mi Calm Calm - N/A   Clear
3:55 AM 64.4 °F - 53.6 °F 68% 29.81 in 10.0 mi Calm Calm - N/A   Clear
4:15 AM 64.4 °F - 51.8 °F 64% 29.81 in 10.0 mi Calm Calm - N/A   Clear
4:35 AM 64.4 °F - 51.8 °F 64% 29.81 in 10.0 mi Calm Calm - N/A   Clear
4:55 AM 66.2 °F - 51.8 °F 60% 29.82 in 10.0 mi East 4.6 mph - N/A   Clear
5:15 AM 68.0 °F - 51.8 °F 56% 29.81 in 10.0 mi Calm Calm - N/A   Clear
5:35 AM 68.0 °F - 51.8 °F 56% 29.81 in 10.0 mi Calm Calm - N/A   Clear
5:55 AM 68.0 °F - 51.8 °F 56% 29.82 in 10.0 mi East 6.9 mph - N/A   Clear
6:15 AM 66.2 °F - 51.8 °F 60% 29.83 in 10.0 mi Calm Calm - N/A   Clear
6:35 AM 62.6 °F - 51.8 °F 68% 29.83 in 10.0 mi Calm Calm - N/A   Clear
6:55 AM 62.6 °F - 51.8 °F 68% 29.84 in 10.0 mi Calm Calm - N/A   Clear
7:15 AM 64.4 °F - 53.6 °F 68% 29.84 in 10.0 mi Calm Calm - N/A   Clear
7:35 AM 64.4 °F - 53.6 °F 68% 29.85 in 10.0 mi Calm Calm - N/A   Clear
7:55 AM 68.0 °F - 53.6 °F 60% 29.85 in 10.0 mi Calm Calm - N/A   Clear
8:15 AM 68.0 °F - 53.6 °F 60% 29.85 in 10.0 mi Calm Calm - N/A   Clear
8:35 AM 71.6 °F - 53.6 °F 53% 29.86 in 10.0 mi Calm Calm - N/A   Clear
8:55 AM 73.4 °F - 53.6 °F 50% 29.86 in 10.0 mi Calm Calm - N/A   Clear
9:15 AM 73.4 °F - 53.6 °F 50% 29.86 in 10.0 mi Calm Calm - N/A   Clear
9:35 AM 73.4 °F - 53.6 °F 50% 29.87 in 10.0 mi SW 3.5 mph - N/A   Clear
9:55 AM 75.2 °F - 53.6 °F 47% 29.87 in 10.0 mi Calm Calm - N/A   Clear
10:15 AM 77.0 °F - 53.6 °F 44% 29.88 in 10.0 mi WSW 6.9 mph - N/A   Clear
10:35 AM 77.0 °F - 53.6 °F 44% 29.89 in 10.0 mi Calm Calm - N/A   Clear
10:55 AM 78.8 °F - 53.6 °F 42% 29.89 in 10.0 mi Calm Calm - N/A   Clear
11:15 AM 80.6 °F 80.3 °F 53.6 °F 39% 29.89 in 10.0 mi Calm Calm - N/A   Clear
11:35 AM 80.6 °F 80.3 °F 53.6 °F 39% 29.90 in 10.0 mi Variable 5.8 mph - N/A   Clear
11:55 AM 80.6 °F - 51.8 °F 37% 29.90 in 10.0 mi Variable 3.5 mph - N/A   Clear
12:15 PM 80.6 °F - 51.8 °F 37% 29.90 in 9.0 mi Calm Calm - N/A   Clear
12:35 PM 82.4 °F - 50.0 °F 32% 29.90 in 10.0 mi SSW 6.9 mph - N/A   Clear
12:55 PM 82.4 °F - 48.2 °F 30% 29.89 in 10.0 mi Variable 6.9 mph 12.7 mph N/A   Clear
1:15 PM 84.2 °F - 51.8 °F 33% 29.89 in 10.0 mi South 8.1 mph 13.8 mph N/A   Clear
1:35 PM 84.2 °F - 51.8 °F 33% 29.89 in 9.0 mi SSW 9.2 mph - N/A   Clear
1:55 PM 84.2 °F - 51.8 °F 33% 29.89 in 10.0 mi SSW 6.9 mph - N/A   Clear
2:15 PM 84.2 °F - 51.8 °F 33% 29.89 in 10.0 mi SW 9.2 mph - N/A   Clear
2:35 PM 84.2 °F - 50.0 °F 30% 29.88 in 10.0 mi Variable 3.5 mph - N/A   Clear
2:55 PM 84.2 °F - 50.0 °F 30% 29.88 in 10.0 mi Calm Calm 11.5 mph N/A   Clear
3:15 PM 84.2 °F - 51.8 °F 33% 29.87 in 10.0 mi South 4.6 mph 13.8 mph N/A   Clear
3:35 PM 84.2 °F - 51.8 °F 33% 29.87 in 10.0 mi Variable 6.9 mph - N/A   Clear
3:55 PM 84.2 °F - 51.8 °F 33% 29.87 in 10.0 mi SW 9.2 mph - N/A   Clear
4:15 PM 84.2 °F - 50.0 °F 30% 29.87 in 10.0 mi SSW 5.8 mph - N/A   Clear
4:35 PM 84.2 °F - 50.0 °F 30% 29.86 in 10.0 mi SW 9.2 mph - N/A   Clear
4:55 PM 84.2 °F - 50.0 °F 30% 29.87 in 10.0 mi Variable 5.8 mph 15.0 mph N/A   Clear
5:15 PM 84.2 °F - 50.0 °F 30% 29.86 in 10.0 mi SW 8.1 mph - N/A   Clear
5:35 PM 84.2 °F - 50.0 °F 30% 29.86 in 10.0 mi Variable 4.6 mph 12.7 mph N/A   Clear
5:55 PM 84.2 °F - 50.0 °F 30% 29.86 in 10.0 mi SSW 6.9 mph - N/A   Clear
6:15 PM 82.4 °F - 50.0 °F 32% 29.86 in 10.0 mi SSW 5.8 mph - N/A   Clear
6:35 PM 82.4 °F - 50.0 °F 32% 29.86 in 10.0 mi Calm Calm - N/A   Clear
6:55 PM 82.4 °F - 50.0 °F 32% 29.86 in 10.0 mi South 6.9 mph - N/A   Clear
7:15 PM 80.6 °F - 50.0 °F 34% 29.86 in 10.0 mi Calm Calm - N/A   Clear
7:35 PM 78.8 °F - 50.0 °F 36% 29.86 in 10.0 mi Calm Calm - N/A   Clear
7:55 PM 78.8 °F - 50.0 °F 36% 29.86 in 10.0 mi Calm Calm - N/A   Clear
8:15 PM 77.0 °F - 50.0 °F 39% 29.87 in 10.0 mi Calm Calm - N/A   Clear
8:35 PM 75.2 °F - 53.6 °F 47% 29.87 in 10.0 mi Calm Calm - N/A   Clear
8:55 PM 73.4 °F - 55.4 °F 53% 29.88 in 10.0 mi Calm Calm - N/A   Clear
9:15 PM 71.6 °F - 53.6 °F 53% 29.89 in 10.0 mi Calm Calm - N/A   Clear
9:35 PM 71.6 °F - 53.6 °F 53% 29.90 in 10.0 mi Calm Calm - N/A   Clear
9:55 PM 69.8 °F - 51.8 °F 53% 29.90 in 10.0 mi Calm Calm - N/A   Clear
10:15 PM 69.8 °F - 51.8 °F 53% 29.91 in 10.0 mi Calm Calm - N/A   Clear
10:35 PM 68.0 °F - 51.8 °F 56% 29.91 in 10.0 mi Calm Calm - N/A   Clear
10:55 PM 66.2 °F - 53.6 °F 64% 29.92 in 10.0 mi Calm Calm - N/A   Clear
11:15 PM 66.2 °F - 53.6 °F 64% 29.92 in 10.0 mi Calm Calm - N/A   Clear
11:35 PM 64.4 °F - 53.6 °F 68% 29.92 in 10.0 mi Calm Calm - N/A   Clear
11:55 PM 64.4 °F - 53.6 °F 68% 29.93 in 10.0 mi Calm Calm - N/A   Clear